Corpus Christi, TX

11:23 PM CST on February 10, 2016 (GMT -0600)
Corpus Christi International

Weather History for KCRP - April, 2013

Change the Weather History Date:

Sunday, April 21, 2013

  Actual Average Record
Temperature  
Mean Temperature 70 °F 74 °F  
Max Temperature 82 °F 83 °F 95 °F (2009)
Min Temperature 58 °F 64 °F 51 °F (1980)
Degree Days  
Heating Degree Days 0 0  
Month to date heating degree days 9 15  
Since 1 July heating degree days 525 896  
Cooling Degree Days 5 9  
Month to date cooling degree days 163 151  
Year to date cooling degree days 464 342  
Growing Degree Days 20 (Base 50)    
Moisture  
Dew Point 56 °F    
Average Humidity 60    
Maximum Humidity 78    
Minimum Humidity 42    
Precipitation  
Precipitation 0.00 in 0.06 in 2.22 in (1946)
Month to date precipitation 0.17 1.22  
Year to date precipitation 1.92 6.58  
Snow  
Snow 0.00 in - - ()
Month to date snowfall 0.0  
Since 1 July snowfall 0.0  
Snow Depth 0.00 in    
Sea Level Pressure  
Sea Level Pressure 30.05 in    
Wind  
Wind Speed 13 mph (ESE)    
Max Wind Speed 22 mph    
Max Gust Speed 30 mph    
Visibility 10 miles    
Events      
T = Trace of Precipitation, MM = Missing Value Source: NWS Daily Summary

Daily Weather History Graph

Daily Weather History Graph

Search for Another Location

Airport or City:

Trip Planner

Search our weather history database for the weather conditions in past years. The results will help you decide how hot, cold, wet, or windy it might be!

Date:

Astronomy

Apr. 21, 2013 Rise Set
Actual Time 6:59 AM CDT 7:58 PM CDT
Civil Twilight 6:34 AM CDT 8:22 PM CDT
Nautical Twilight 6:06 AM CDT 8:51 PM CDT
Astronomical Twilight 5:36 AM CDT 9:21 PM CDT
Moon 4:05 PM CDT (4/21) 3:59 AM CDT (4/21)
Length of Visible Light 13h 48m
Length of Day
12h 59m
Waxing Gibbous, 80% of the Moon is Illuminated
Apr 21
Waxing Gibbous
Apr 25
Full
May 2
Last Quarter
May 9
New
May 17
First Quarter

Hourly Weather History & Observations

Time (CDT) Temp. Heat Index Dew Point Humidity Pressure Visibility Wind Dir Wind Speed Gust Speed Precip Events Conditions
12:51 AM 63.0 °F - 51.1 °F 65% 30.06 in 10.0 mi ESE 9.2 mph - N/A   Partly Cloudy
1:51 AM 62.1 °F - 51.1 °F 67% 30.04 in 10.0 mi SE 10.4 mph - N/A   Scattered Clouds
2:51 AM 63.0 °F - 52.0 °F 67% 30.03 in 10.0 mi SE 8.1 mph - N/A   Partly Cloudy
3:51 AM 63.0 °F - 53.1 °F 70% 30.03 in 10.0 mi SE 8.1 mph - N/A   Partly Cloudy
4:51 AM 62.1 °F - 51.1 °F 67% 30.03 in 10.0 mi SE 5.8 mph - N/A   Scattered Clouds
5:51 AM 60.1 °F - 51.1 °F 72% 30.04 in 10.0 mi South 4.6 mph - N/A   Scattered Clouds
6:51 AM 62.1 °F - 53.1 °F 72% 30.05 in 10.0 mi East 4.6 mph - N/A   Partly Cloudy
7:51 AM 63.0 °F - 54.0 °F 72% 30.08 in 10.0 mi ENE 3.5 mph - N/A   Partly Cloudy
8:51 AM 71.1 °F - 55.9 °F 59% 30.09 in 10.0 mi SE 8.1 mph - N/A   Partly Cloudy
9:51 AM 73.9 °F - 55.0 °F 52% 30.10 in 10.0 mi ESE 9.2 mph - N/A   Scattered Clouds
10:51 AM 77.0 °F - 55.0 °F 47% 30.11 in 10.0 mi ESE 12.7 mph - N/A   Scattered Clouds
11:51 AM 79.0 °F - 54.0 °F 42% 30.10 in 10.0 mi East 11.5 mph 19.6 mph N/A   Partly Cloudy
12:51 PM 81.0 °F 80.8 °F 55.9 °F 42% 30.08 in 10.0 mi ESE 15.0 mph 21.9 mph N/A   Partly Cloudy
1:51 PM 81.0 °F 80.8 °F 55.9 °F 42% 30.06 in 10.0 mi ESE 11.5 mph 23.0 mph N/A   Partly Cloudy
2:51 PM 81.0 °F 81.0 °F 57.0 °F 44% 30.04 in 10.0 mi East 17.3 mph 25.3 mph N/A   Partly Cloudy
3:51 PM 80.1 °F 80.2 °F 55.9 °F 43% 30.02 in 10.0 mi East 13.8 mph 23.0 mph N/A   Partly Cloudy
4:51 PM 80.1 °F 80.6 °F 57.9 °F 47% 30.01 in 10.0 mi East 18.4 mph - N/A   Partly Cloudy
5:51 PM 77.0 °F - 60.1 °F 56% 30.01 in 10.0 mi East 17.3 mph - N/A   Scattered Clouds
6:51 PM 75.0 °F - 61.0 °F 62% 30.02 in 10.0 mi ESE 21.9 mph - N/A   Scattered Clouds
7:30 PM 73.4 °F - 60.8 °F 65% 30.03 in 10.0 mi East 20.7 mph - N/A   Mostly Cloudy
7:51 PM 72.0 °F - 61.0 °F 68% 30.04 in 10.0 mi ESE 20.7 mph - N/A   Mostly Cloudy
8:07 PM 71.6 °F - 60.8 °F 69% 30.04 in 10.0 mi East 19.6 mph - N/A   Scattered Clouds
8:51 PM 71.1 °F - 62.1 °F 73% 30.05 in 10.0 mi East 16.1 mph - N/A   Scattered Clouds
9:51 PM 70.0 °F - 62.1 °F 76% 30.06 in 10.0 mi ESE 18.4 mph - N/A   Partly Cloudy
10:51 PM 70.0 °F - 62.1 °F 76% 30.07 in 10.0 mi ESE 17.3 mph - N/A   Partly Cloudy
11:51 PM 70.0 °F - 62.1 °F 76% 30.07 in 10.0 mi ESE 16.1 mph - N/A   Partly Cloudy